Location: Wingville
(42.9917°N, 90.4915°W)
Time: 00:37:16
(UTC+00:00)

EO-79 - Pass Details

Date: 01 July 2022
Orbit: 588 x 603 km, 98.0° (Epoch: 15 August)

Event Time Altitude Azimuth Distance (km) Brightness Sun altitude
Rises 07:24:39 0° 18° (NNE) 2,855 ? -21.5°
Reaches altitude 10° 07:26:53 10° 24° (NNE) 1,950 ? -21.3°
Maximum altitude 07:31:00 50° 100° (E) 774 ? -21.1°
Enters shadow 07:32:00 40° 142° (SE) 885 ? -21.0°
